Weather History for Windom, MN

Change the Weather History Date:

Monday, November 25, 2013

  Actual Average Record
Temperature  
Mean Temperature 34 °F -  
Max Temperature 42 °F 38 °F 65 °F (1960)
Min Temperature 26 °F 19 °F -11 °F (1977)
Degree Days  
Heating Degree Days 31    
Moisture  
Dew Point 23 °F    
Average Humidity 66    
Maximum Humidity 93    
Minimum Humidity 49    
Precipitation  
Precipitation 0.00 in - - ()
Sea Level Pressure  
Sea Level Pressure 30.03 in    
Wind  
Wind Speed 17 mph (West)    
Max Wind Speed 24 mph    
Max Gust Speed 31 mph    
Visibility 10 miles    
Events      
Averages and records for this station are not official NWS values.
T = Trace of Precipitation, MM = Missing Value Source: NWS Daily Summary

Daily Weather History Graph

Daily Weather History Graph

Search for Another Location

Airport:

Trip Planner

Search our weather history database for the weather conditions in past years. The results will help you decide how hot, cold, wet, or windy it might be!

Date:

Astronomy

Nov. 25, 2013 Rise Set
Actual Time 7:28 AM CST 4:46 PM CST
Civil Twilight 6:56 AM CST 5:18 PM CST
Nautical Twilight 6:20 AM CST 5:54 PM CST
Astronomical Twilight 5:46 AM CST 6:28 PM CST
Moon No Moon Rise 12:37 PM CST (11/25)
Length of Visible Light 10h 22m
Length of Day
9h 18m
Waning Gibbous, 51% of the Moon is Illuminated
Nov 25
Waning Gibbous
Nov 25
Last Quarter
Dec 2
New
Dec 9
First Quarter
Dec 17
Full

Hourly Weather History & Observations

Time (CST) Temp. Windchill Dew Point Humidity Pressure Visibility Wind Dir Wind Speed Gust Speed Precip Events Conditions
12:13 AM 26.6 °F 11.7 °F 17.6 °F 69% 29.98 in 10.0 mi SSW 24.2 mph 31.1 mph N/A   Clear
12:32 AM 26.6 °F 12.0 °F 17.6 °F 69% 29.98 in 10.0 mi SSW 23.0 mph 29.9 mph N/A   Mostly Cloudy
12:52 AM 26.6 °F 13.1 °F 17.6 °F 69% 29.98 in 10.0 mi SW 19.6 mph 28.8 mph N/A   Mostly Cloudy
1:13 AM 26.6 °F 12.7 °F 17.6 °F 69% 29.97 in 10.0 mi SSW 20.7 mph 29.9 mph N/A   Overcast
1:32 AM 26.6 °F 13.1 °F 17.6 °F 69% 29.97 in 10.0 mi SSW 19.6 mph 29.9 mph N/A   Mostly Cloudy
1:52 AM 28.4 °F 15.1 °F 17.6 °F 64% 29.97 in 10.0 mi SW 20.7 mph 27.6 mph N/A   Mostly Cloudy
2:13 AM 28.4 °F 15.4 °F 19.4 °F 69% 29.97 in 10.0 mi SSW 19.6 mph 26.5 mph N/A   Overcast
2:32 AM 28.4 °F 15.4 °F 19.4 °F 69% 29.96 in 10.0 mi SSW 19.6 mph 28.8 mph N/A   Mostly Cloudy
2:52 AM 28.4 °F 15.4 °F 21.2 °F 74% 29.95 in 10.0 mi SW 19.6 mph 25.3 mph N/A   Clear
3:12 AM 28.4 °F 15.4 °F 21.2 °F 74% 29.95 in 10.0 mi SW 19.6 mph 25.3 mph N/A   Clear
3:32 AM 28.4 °F 15.8 °F 21.2 °F 74% 29.94 in 10.0 mi SW 18.4 mph 24.2 mph N/A   Clear
3:53 AM 28.4 °F 15.1 °F 21.2 °F 74% 29.94 in 10.0 mi SW 20.7 mph 26.5 mph N/A   Clear
4:12 AM 30.2 °F 18.5 °F 21.2 °F 69% 29.95 in 10.0 mi SW 17.3 mph - N/A   Scattered Clouds
4:32 AM 30.2 °F 18.9 °F 23.0 °F 75% 29.95 in 10.0 mi SW 16.1 mph - N/A   Mostly Cloudy
4:53 AM 30.2 °F 19.3 °F 24.8 °F 80% 29.95 in 10.0 mi SW 15.0 mph 21.9 mph N/A   Mostly Cloudy
5:12 AM 30.2 °F 18.9 °F 24.8 °F 80% 29.96 in 10.0 mi WSW 16.1 mph - N/A   Overcast
5:32 AM 30.2 °F 19.8 °F 24.8 °F 80% 29.96 in 10.0 mi WSW 13.8 mph 19.6 mph N/A   Mostly Cloudy
5:53 AM 30.2 °F 20.8 °F 24.8 °F 80% 29.96 in 10.0 mi WSW 11.5 mph - N/A   Clear
6:12 AM 30.2 °F 20.8 °F 24.8 °F 80% 29.97 in 10.0 mi WSW 11.5 mph - N/A   Clear
6:33 AM 28.4 °F 19.1 °F 24.8 °F 86% 29.97 in 10.0 mi WSW 10.4 mph - N/A   Clear
6:53 AM 28.4 °F 19.1 °F 24.8 °F 86% 29.97 in 10.0 mi WSW 10.4 mph - N/A   Clear
7:12 AM 26.6 °F 16.8 °F 24.8 °F 93% 29.98 in 10.0 mi WSW 10.4 mph - N/A   Clear
7:33 AM 26.6 °F 17.5 °F 24.8 °F 93% 29.98 in 10.0 mi WSW 9.2 mph - N/A   Clear
7:53 AM 26.6 °F 16.8 °F 24.8 °F 93% 29.99 in 10.0 mi WSW 10.4 mph - N/A   Clear
8:12 AM 26.6 °F 16.8 °F 24.8 °F 93% 29.99 in 10.0 mi West 10.4 mph - N/A   Clear
8:33 AM 28.4 °F 19.7 °F 24.8 °F 86% 30.00 in 10.0 mi WSW 9.2 mph - N/A   Clear
8:53 AM 30.2 °F 21.9 °F 26.6 °F 86% 30.01 in 10.0 mi West 9.2 mph - N/A   Clear
9:12 AM 32.0 °F 24.2 °F 26.6 °F 80% 30.01 in 10.0 mi West 9.2 mph - N/A   Clear
9:33 AM 33.8 °F 24.3 °F 26.6 °F 75% 30.02 in 10.0 mi WNW 13.8 mph - N/A   Clear
9:53 AM 35.6 °F 26.6 °F 26.6 °F 70% 30.02 in 10.0 mi WNW 13.8 mph 18.4 mph N/A   Clear
10:12 AM 37.4 °F 27.8 °F 26.6 °F 65% 30.02 in 10.0 mi NW 17.3 mph 21.9 mph N/A   Clear
10:33 AM 37.4 °F 27.8 °F 26.6 °F 65% 30.03 in 10.0 mi NW 17.3 mph - N/A   Clear
10:52 AM 39.2 °F 30.2 °F 26.6 °F 61% 30.03 in 10.0 mi NW 17.3 mph - N/A   Clear
11:12 AM 39.2 °F 31.2 °F 26.6 °F 61% 30.02 in 10.0 mi WNW 13.8 mph - N/A   Clear
11:33 AM 39.2 °F 31.6 °F 26.6 °F 61% 30.02 in 10.0 mi NW 12.7 mph - N/A   Clear
11:52 AM 39.2 °F 31.6 °F 26.6 °F 61% 30.02 in 10.0 mi WNW 12.7 mph 19.6 mph N/A   Clear
12:12 PM 41.0 °F 33.9 °F 26.6 °F 57% 30.02 in 10.0 mi WNW 12.7 mph 20.7 mph N/A   Scattered Clouds
12:33 PM 41.0 °F 33.1 °F 26.6 °F 57% 30.02 in 10.0 mi WNW 15.0 mph 23.0 mph N/A   Scattered Clouds
12:52 PM 41.0 °F 32.8 °F 26.6 °F 57% 30.03 in 10.0 mi NW 16.1 mph - N/A   Scattered Clouds
1:12 PM 39.2 °F 30.2 °F 24.8 °F 56% 30.03 in 10.0 mi NW 17.3 mph 23.0 mph N/A   Scattered Clouds
1:33 PM 42.8 °F 34.3 °F 24.8 °F 49% 30.02 in 10.0 mi NW 19.6 mph 24.2 mph N/A   Mostly Cloudy
1:52 PM 41.0 °F 32.2 °F 23.0 °F 49% 30.02 in 10.0 mi NW 18.4 mph 25.3 mph N/A   Mostly Cloudy
2:12 PM 39.2 °F 29.6 °F 23.0 °F 52% 30.03 in 10.0 mi NW 19.6 mph 26.5 mph N/A   Scattered Clouds
2:33 PM 39.2 °F 29.8 °F 23.0 °F 52% 30.04 in 10.0 mi NW 18.4 mph 26.5 mph N/A   Scattered Clouds
2:52 PM 37.4 °F 27.5 °F 21.2 °F 52% 30.04 in 10.0 mi WNW 18.4 mph 28.8 mph N/A   Scattered Clouds
3:12 PM 37.4 °F 27.5 °F 21.2 °F 52% 30.06 in 10.0 mi WNW 18.4 mph 27.6 mph N/A   Clear
3:33 PM 37.4 °F 28.2 °F 21.2 °F 52% 30.06 in 10.0 mi NW 16.1 mph 21.9 mph N/A   Clear
3:52 PM 37.4 °F 28.2 °F 21.2 °F 52% 30.07 in 10.0 mi NW 16.1 mph - N/A   Clear
4:13 PM 35.6 °F 25.9 °F 21.2 °F 56% 30.08 in 10.0 mi NW 16.1 mph - N/A   Clear
4:32 PM 35.6 °F 25.2 °F 21.2 °F 56% 30.08 in 10.0 mi WNW 18.4 mph 23.0 mph N/A   Scattered Clouds
4:52 PM 35.6 °F 25.5 °F 21.2 °F 56% 30.08 in 10.0 mi WNW 17.3 mph 21.9 mph N/A   Mostly Cloudy
5:13 PM 35.6 °F 28.0 °F 21.2 °F 56% 30.09 in 10.0 mi WNW 10.4 mph - N/A   Overcast
5:32 PM 35.6 °F 27.1 °F 21.2 °F 56% 30.09 in 10.0 mi WNW 12.7 mph 19.6 mph N/A   Overcast
5:52 PM 35.6 °F 26.6 °F 21.2 °F 56% 30.10 in 10.0 mi NW 13.8 mph 19.6 mph N/A   Overcast
6:13 PM 33.8 °F 25.3 °F 21.2 °F 60% 30.10 in 10.0 mi WNW 11.5 mph - N/A   Overcast
6:32 PM 35.6 °F 25.9 °F 21.2 °F 56% 30.10 in 10.0 mi NW 16.1 mph 20.7 mph N/A   Overcast
6:52 PM 33.8 °F 24.3 °F 21.2 °F 60% 30.10 in 10.0 mi WNW 13.8 mph 19.6 mph N/A   Overcast
7:13 PM 35.6 °F 25.9 °F 21.2 °F 56% 30.10 in 10.0 mi WNW 16.1 mph 27.6 mph N/A   Overcast
7:32 PM 33.8 °F 23.5 °F 21.2 °F 60% 30.10 in 10.0 mi WNW 16.1 mph 27.6 mph N/A   Overcast
7:52 PM 33.8 °F 22.8 °F 21.2 °F 60% 30.10 in 10.0 mi WNW 18.4 mph 23.0 mph N/A   Overcast
8:13 PM 33.8 °F 23.5 °F 21.2 °F 60% 30.10 in 10.0 mi WNW 16.1 mph - N/A   Overcast
8:32 PM 33.8 °F 24.3 °F 21.2 °F 60% 30.10 in 10.0 mi WNW 13.8 mph - N/A   Overcast
8:53 PM 33.8 °F 23.9 °F 21.2 °F 60% 30.10 in 10.0 mi WNW 15.0 mph - N/A   Overcast
9:12 PM 33.8 °F 23.2 °F 21.2 °F 60% 30.10 in 10.0 mi NW 17.3 mph - N/A   Overcast
9:32 PM 33.8 °F 22.2 °F 21.2 °F 60% 30.09 in 10.0 mi NW 20.7 mph 25.3 mph N/A   Overcast
9:53 PM 33.8 °F 23.9 °F 21.2 °F 60% 30.10 in 10.0 mi NW 15.0 mph - N/A   Overcast
10:12 PM 33.8 °F 24.3 °F 21.2 °F 60% 30.10 in 10.0 mi NW 13.8 mph 19.6 mph N/A   Overcast
10:32 PM 32.0 °F 22.5 °F 21.2 °F 64% 30.10 in 10.0 mi NW 12.7 mph 18.4 mph N/A   Overcast
10:53 PM 32.0 °F 21.6 °F 21.2 °F 64% 30.10 in 10.0 mi WNW 15.0 mph - N/A   Overcast
11:12 PM 32.0 °F 22.1 °F 21.2 °F 64% 30.11 in 10.0 mi NW 13.8 mph - N/A   Overcast
11:32 PM 30.2 °F 18.9 °F 21.2 °F 69% 30.12 in 10.0 mi NW 16.1 mph 20.7 mph N/A   Overcast
11:53 PM 30.2 °F 19.8 °F 21.2 °F 69% 30.12 in 10.0 mi NW 13.8 mph 18.4 mph N/A   Overcast